THORAD AGENA D DEB, 4734

Orbit data source: Space-Track

THORAD AGENA D DEB, 4734 is space debris in SSO originally from a launch on Wed, 08 Apr 1970 UTC launched from the Air Force Western Test Range (AFWTR). Debris objects in space refer to the collection of defunct objects orbiting the Earth. Examples of debris include non-operational satellites, rocket bodies, and fragments generated from explosions, collisions, or faulty payload assembly.

Loading next visibility...
Identifier
4734, 1970-025CH
Orbit
SSO
Country
Flag of USUS
Related business
Manufacturer
Unknown
Mission
Spacecraft
Bus & Motor
Unknown
Mass
Unknown
Launch date (UTC)
1970-04-08 (56 years ago)
Launch vehicle
Unknown
Launch site
Air Force Western Test Range (AFWTR)
Object type
Payload
Rocket body
Debris
Shape & HBR
Unknown shape, 0.1 m
Radar Cross Section
Medium (>0.1 m² and <1 m²)

Expand to show TLE details & history
Last TLE update: 15 hours ago

TLE from 15 hours ago
0 THORAD AGENA D DEB
1 04734U 70025CH  26255.69944470  .00000112  00000-0  13662-3 0  9990
2 04734 100.1016 347.5408 0082981 133.1637 227.6491 13.86490483834699
Epoch: 2026-09-12T16:47Z
TLE epoch observation values (Epoch: 2026-09-12T16:47:12.022Z)
Latitude
0.00002°
Longitude
104.03601°
Altitude
984.973 km
Speed
7.339 km/s
True Right ascension
23h 10m 09s
True Declination
0° 00' 00"
Sunlit
Object was in full shadow at epoch
Visualization orbit readout
Latitude
Unknown
Longitude
Unknown
Altitude
Unknown
Speed
Unknown
Apparent Right ascension
Unknown
Apparent Declination
Unknown
Sunlit
N/A
Visualization observer readout
Local Sidereal Time
00:45:20
Azimuth
Unknown
Elevation
Unknown
Doppler factor
Unknown
Orbital elements
Apogee altitude
998.942 km
Perigee altitude
877.518 km
Semi-major axis
7,316.367 km
Eccentricity
0.0083
Inclination
100.1016°
RAAN
347.5408°
Arg. of periapsis
133.1637°
True anomaly
226.95125°
Mean anomaly
227.6491°
Eccentric anomaly
227.29969°
Mean motion
3.46817 °/min
Orbital period
103.8 mins
BSTAR
0.00013662
Loading maneuver chart data...
Computing Atmospheric mass density...

Documentation

Showing up to 5 results
|